Time,TemperatureF,DewpointF,PressureIn,WindDirection,WindDirectionDegrees,WindSpeedMPH,WindSpeedGustMPH,Humidity,HourlyPrecipIn,Conditions,Clouds,dailyrainin,SoftwareType,DateUTC
2013-02-09 00:00:00,51.3,29.0,30.07,ESE,115,1.0,4.0,42,0.00,,,0.00,Wunderground v.1.15,2013-02-09 06:00:00,
2013-02-09 00:10:00,51.4,29.6,30.06,ESE,118,1.0,3.0,43,0.00,,,0.00,Wunderground v.1.15,2013-02-09 06:10:00,
2013-02-09 00:20:00,51.0,29.3,30.06,ESE,119,2.0,2.0,43,0.00,,,0.00,Wunderground v.1.15,2013-02-09 06:20:00,
2013-02-09 00:30:00,50.9,29.7,30.05,ESE,119,1.0,3.0,44,0.00,,,0.00,Wunderground v.1.15,2013-02-09 06:30:00,
2013-02-09 00:40:00,50.7,30.7,30.06,ESE,120,1.0,3.0,46,0.00,,,0.00,Wunderground v.1.15,2013-02-09 06:40:00,
2013-02-09 00:50:00,50.4,30.4,30.05,SE,133,2.0,4.0,46,0.00,,,0.00,Wunderground v.1.15,2013-02-09 06:50:00,
2013-02-09 01:00:00,50.5,31.0,30.05,SE,133,3.0,3.0,47,0.00,,,0.00,Wunderground v.1.15,2013-02-09 07:00:00,
2013-02-09 01:10:00,50.6,30.0,30.03,SE,132,2.0,3.0,45,0.00,,,0.00,Wunderground v.1.15,2013-02-09 07:10:00,
2013-02-09 01:20:00,50.6,30.6,30.02,ESE,115,3.0,4.0,46,0.00,,,0.00,Wunderground v.1.15,2013-02-09 07:20:00,
2013-02-09 01:30:00,50.6,30.6,30.03,SE,126,6.0,6.0,46,0.00,,,0.00,Wunderground v.1.15,2013-02-09 07:30:00,
2013-02-09 01:40:00,50.6,31.6,30.05,SE,128,1.0,3.0,48,0.00,,,0.00,Wunderground v.1.15,2013-02-09 07:40:00,
2013-02-09 01:50:00,50.5,31.5,30.05,SE,128,0.0,3.0,48,0.00,,,0.00,Wunderground v.1.15,2013-02-09 07:50:00,
2013-02-09 02:00:00,50.2,31.8,30.06,SE,128,0.0,3.0,49,0.00,,,0.00,Wunderground v.1.15,2013-02-09 08:00:00,
2013-02-09 02:10:00,50.1,32.2,30.05,SE,128,0.0,3.0,50,0.00,,,0.00,Wunderground v.1.15,2013-02-09 08:10:00,
2013-02-09 02:20:00,50.0,32.1,30.04,SE,126,0.0,3.0,50,0.00,,,0.00,Wunderground v.1.15,2013-02-09 08:20:00,
2013-02-09 02:30:00,50.0,32.1,30.04,SE,126,0.0,3.0,50,0.00,,,0.00,Wunderground v.1.15,2013-02-09 08:30:00,
2013-02-09 02:40:00,49.9,32.5,30.04,SE,126,0.0,3.0,51,0.00,,,0.00,Wunderground v.1.15,2013-02-09 08:40:00,
2013-02-09 02:50:00,49.5,33.5,30.03,SE,126,0.0,3.0,54,0.00,,,0.00,Wunderground v.1.15,2013-02-09 08:50:00,
2013-02-09 03:00:00,49.3,34.7,30.03,SE,126,1.0,3.0,57,0.00,,,0.00,Wunderground v.1.15,2013-02-09 09:00:00,
2013-02-09 03:10:00,49.0,34.4,30.02,SE,129,3.0,3.0,57,0.00,,,0.00,Wunderground v.1.15,2013-02-09 09:10:00,
2013-02-09 03:20:00,49.4,35.7,30.01,SE,128,2.0,4.0,59,0.00,,,0.00,Wunderground v.1.15,2013-02-09 09:20:00,
2013-02-09 03:30:00,49.8,36.0,30.03,SE,126,2.0,3.0,59,0.00,,,0.00,Wunderground v.1.15,2013-02-09 09:30:00,
2013-02-09 03:40:00,50.0,37.1,30.03,SE,128,2.0,2.0,61,0.00,,,0.00,Wunderground v.1.15,2013-02-09 09:40:00,
2013-02-09 03:50:00,50.1,37.6,30.02,SE,133,3.0,3.0,62,0.00,,,0.00,Wunderground v.1.15,2013-02-09 09:50:00,
2013-02-09 04:00:00,50.0,37.5,30.01,ESE,123,2.0,3.0,62,0.00,,,0.00,Wunderground v.1.15,2013-02-09 10:00:00,
2013-02-09 04:10:00,49.6,38.3,30.00,ESE,123,4.0,4.0,65,0.00,,,0.00,Wunderground v.1.15,2013-02-09 10:10:00,
2013-02-09 04:20:00,49.6,38.7,30.01,ESE,123,3.0,4.0,66,0.00,,,0.00,Wunderground v.1.15,2013-02-09 10:20:00,
2013-02-09 04:30:00,49.5,39.4,29.99,SE,129,4.0,4.0,68,0.00,,,0.00,Wunderground v.1.15,2013-02-09 10:30:00,
2013-02-09 04:40:00,49.6,39.5,30.00,ESE,121,2.0,2.0,68,0.00,,,0.00,Wunderground v.1.15,2013-02-09 10:40:00,
2013-02-09 04:50:00,49.5,39.7,29.99,ESE,120,3.0,5.0,69,0.00,,,0.00,Wunderground v.1.15,2013-02-09 10:50:00,
2013-02-09 05:00:00,49.4,40.7,29.99,SE,133,7.0,14.0,72,0.00,,,0.00,Wunderground v.1.15,2013-02-09 11:00:00,
2013-02-09 05:10:00,49.4,41.1,29.98,SE,136,10.0,12.0,73,0.00,,,0.00,Wunderground v.1.15,2013-02-09 11:10:00,
2013-02-09 05:20:00,49.2,41.3,29.97,SE,132,11.0,11.0,74,0.00,,,0.00,Wunderground v.1.15,2013-02-09 11:20:00,
2013-02-09 05:30:00,49.0,41.4,29.98,SE,143,9.0,9.0,75,0.00,,,0.00,Wunderground v.1.15,2013-02-09 11:30:00,
2013-02-09 05:40:00,48.9,42.0,29.98,SE,141,8.0,8.0,77,0.00,,,0.00,Wunderground v.1.15,2013-02-09 11:40:00,
2013-02-09 05:50:00,48.8,42.2,29.97,SE,136,8.0,9.0,78,0.00,,,0.00,Wunderground v.1.15,2013-02-09 11:50:00,
2013-02-09 06:00:00,48.7,42.5,29.96,SE,140,9.0,10.0,79,0.00,,,0.00,Wunderground v.1.15,2013-02-09 12:00:00,
2013-02-09 06:10:00,48.7,42.8,29.97,SE,146,9.0,9.0,80,0.00,,,0.00,Wunderground v.1.15,2013-02-09 12:10:00,
2013-02-09 06:20:00,49.2,43.6,29.97,SE,146,7.0,9.0,81,0.00,,,0.00,Wunderground v.1.15,2013-02-09 12:20:00,
2013-02-09 06:30:00,49.8,44.5,29.98,SSE,159,4.0,6.0,82,0.00,,,0.00,Wunderground v.1.15,2013-02-09 12:30:00,
2013-02-09 06:40:00,51.0,46.6,29.97,SSE,157,7.0,11.0,85,0.00,,,0.00,Wunderground v.1.15,2013-02-09 12:40:00,
2013-02-09 06:50:00,52.0,47.3,29.98,SSE,162,9.0,9.0,84,0.00,,,0.00,Wunderground v.1.15,2013-02-09 12:50:00,
2013-02-09 07:00:00,52.4,47.7,29.98,SSE,157,9.0,15.0,84,0.00,,,0.00,Wunderground v.1.15,2013-02-09 13:00:00,
2013-02-09 07:10:00,52.5,48.1,29.97,South,169,14.0,18.0,85,0.00,,,0.00,Wunderground v.1.15,2013-02-09 13:10:00,
2013-02-09 07:20:00,52.4,48.0,29.96,SSE,157,16.0,16.0,85,0.00,,,0.00,Wunderground v.1.15,2013-02-09 13:20:00,
2013-02-09 07:30:00,52.3,47.9,29.97,SSE,159,15.0,15.0,85,0.00,,,0.00,Wunderground v.1.15,2013-02-09 13:30:00,
2013-02-09 07:40:00,52.3,48.2,29.97,SE,146,14.0,22.0,86,0.00,,,0.00,Wunderground v.1.15,2013-02-09 13:40:00,
2013-02-09 07:50:00,52.3,48.2,29.97,SSE,165,18.0,18.0,86,0.00,,,0.00,Wunderground v.1.15,2013-02-09 13:50:00,
2013-02-09 08:00:00,52.4,48.3,29.97,SSE,163,15.0,21.0,86,0.00,,,0.00,Wunderground v.1.15,2013-02-09 14:00:00,
2013-02-09 08:10:00,52.8,48.7,29.97,SSE,161,16.0,19.0,86,0.00,,,0.00,Wunderground v.1.15,2013-02-09 14:10:00,
2013-02-09 08:20:00,52.9,48.8,29.98,SSE,156,15.0,16.0,86,0.00,,,0.00,Wunderground v.1.15,2013-02-09 14:20:00,
2013-02-09 08:30:00,53.1,49.0,29.98,SSE,151,15.0,15.0,86,0.00,,,0.00,Wunderground v.1.15,2013-02-09 14:30:00,
2013-02-09 08:40:00,53.3,48.9,29.98,SE,146,13.0,13.0,85,0.00,,,0.00,Wunderground v.1.15,2013-02-09 14:40:00,
2013-02-09 08:50:00,53.4,49.0,29.97,SSE,156,11.0,11.0,85,0.00,,,0.00,Wunderground v.1.15,2013-02-09 14:50:00,
2013-02-09 09:00:00,53.7,49.0,29.97,SE,136,13.0,13.0,84,0.00,,,0.00,Wunderground v.1.15,2013-02-09 15:00:00,
2013-02-09 09:10:00,53.8,49.1,29.97,SSE,148,15.0,17.0,84,0.00,,,0.00,Wunderground v.1.15,2013-02-09 15:10:00,
2013-02-09 09:20:00,53.9,49.2,29.97,SSE,157,14.0,14.0,84,0.00,,,0.00,Wunderground v.1.15,2013-02-09 15:20:00,
2013-02-09 09:30:00,54.1,49.4,29.96,SE,135,13.0,17.0,84,0.00,,,0.00,Wunderground v.1.15,2013-02-09 15:30:00,
2013-02-09 09:40:00,54.3,49.6,29.95,SSE,147,14.0,15.0,84,0.00,,,0.00,Wunderground v.1.15,2013-02-09 15:40:00,
2013-02-09 09:50:00,54.6,49.5,29.95,SE,143,14.0,14.0,83,0.00,,,0.00,Wunderground v.1.15,2013-02-09 15:50:00,
2013-02-09 10:00:00,54.9,49.5,29.94,SSE,159,13.0,16.0,82,0.00,,,0.00,Wunderground v.1.15,2013-02-09 16:00:00,
2013-02-09 10:10:00,55.4,49.7,29.94,SE,143,14.0,23.0,81,0.00,,,0.00,Wunderground v.1.15,2013-02-09 16:10:00,
2013-02-09 10:20:00,55.7,49.6,29.93,SSE,155,15.0,15.0,80,0.00,,,0.00,Wunderground v.1.15,2013-02-09 16:20:00,
2013-02-09 10:30:00,55.7,49.6,29.93,SSE,148,15.0,21.0,80,0.00,,,0.00,Wunderground v.1.15,2013-02-09 16:30:00,
2013-02-09 10:40:00,55.9,50.2,29.92,SSE,151,15.0,17.0,81,0.00,,,0.00,Wunderground v.1.15,2013-02-09 16:40:00,
2013-02-09 10:50:00,56.1,50.0,29.92,SE,137,18.0,19.0,80,0.00,,,0.00,Wunderground v.1.15,2013-02-09 16:50:00,
2013-02-09 11:00:00,56.4,50.3,29.92,SSE,156,18.0,18.0,80,0.00,,,0.00,Wunderground v.1.15,2013-02-09 17:00:00,
2013-02-09 11:10:00,56.6,50.5,29.92,SSE,161,15.0,15.0,80,0.00,,,0.00,Wunderground v.1.15,2013-02-09 17:10:00,
2013-02-09 11:20:00,56.7,50.6,29.92,SE,140,14.0,19.0,80,0.00,,,0.00,Wunderground v.1.15,2013-02-09 17:20:00,
2013-02-09 11:30:00,56.8,51.0,29.91,SSE,162,17.0,17.0,81,0.00,,,0.00,Wunderground v.1.15,2013-02-09 17:30:00,
2013-02-09 11:40:00,57.0,51.2,29.91,SSE,161,15.0,15.0,81,0.00,,,0.00,Wunderground v.1.15,2013-02-09 17:40:00,
2013-02-09 11:50:00,57.2,51.4,29.90,SSE,164,13.0,15.0,81,0.00,,,0.00,Wunderground v.1.15,2013-02-09 17:50:00,
2013-02-09 12:00:00,57.3,51.5,29.90,South,172,15.0,22.0,81,0.00,,,0.00,Wunderground v.1.15,2013-02-09 18:00:00,
2013-02-09 12:10:00,57.4,51.6,29.90,SSE,154,14.0,14.0,81,0.00,,,0.00,Wunderground v.1.15,2013-02-09 18:10:00,
2013-02-09 12:20:00,57.3,51.9,29.89,SSE,150,15.0,15.0,82,0.00,,,0.00,Wunderground v.1.15,2013-02-09 18:20:00,
2013-02-09 12:30:00,57.3,52.2,29.88,SSE,154,15.0,15.0,83,0.00,,,0.00,Wunderground v.1.15,2013-02-09 18:30:00,
2013-02-09 12:40:00,57.2,52.4,29.87,SSE,158,15.0,15.0,84,0.00,,,0.00,Wunderground v.1.15,2013-02-09 18:40:00,
2013-02-09 12:50:00,57.1,52.3,29.87,SE,146,14.0,18.0,84,0.00,,,0.00,Wunderground v.1.15,2013-02-09 18:50:00,
2013-02-09 13:00:00,57.1,52.6,29.87,SSE,161,13.0,13.0,85,0.00,,,0.00,Wunderground v.1.15,2013-02-09 19:00:00,
2013-02-09 13:10:00,56.9,52.4,29.85,SSE,152,14.0,14.0,85,0.00,,,0.00,Wunderground v.1.15,2013-02-09 19:10:00,
2013-02-09 13:20:00,57.1,53.0,29.84,SSE,166,13.0,13.0,86,0.00,,,0.00,Wunderground v.1.15,2013-02-09 19:20:00,
2013-02-09 13:30:00,57.0,52.9,29.83,SSE,148,13.0,15.0,86,0.00,,,0.00,Wunderground v.1.15,2013-02-09 19:30:00,
2013-02-09 13:40:00,56.9,53.1,29.83,SSE,162,12.0,12.0,87,0.00,,,0.00,Wunderground v.1.15,2013-02-09 19:40:00,
2013-02-09 13:50:00,56.7,53.2,29.82,SE,146,12.0,17.0,88,0.00,,,0.00,Wunderground v.1.15,2013-02-09 19:50:00,
2013-02-09 14:00:00,56.4,53.2,29.81,SSE,161,14.0,14.0,89,0.00,,,0.00,Wunderground v.1.15,2013-02-09 20:00:00,
2013-02-09 14:10:00,56.4,53.5,29.81,SSE,155,12.0,13.0,90,0.00,,,0.00,Wunderground v.1.15,2013-02-09 20:10:00,
2013-02-09 14:20:00,56.0,53.4,29.80,SE,144,12.0,12.0,91,0.00,,,0.00,Wunderground v.1.15,2013-02-09 20:20:00,
2013-02-09 14:30:00,55.8,53.5,29.80,SE,143,12.0,12.0,92,0.00,,,0.00,Wunderground v.1.15,2013-02-09 20:30:00,
2013-02-09 14:40:00,55.9,53.9,29.79,SE,140,12.0,12.0,93,0.00,,,0.00,Wunderground v.1.15,2013-02-09 20:40:00,
2013-02-09 14:50:00,55.9,53.9,29.79,SSE,147,12.0,12.0,93,0.00,,,0.00,Wunderground v.1.15,2013-02-09 20:50:00,
2013-02-09 15:00:00,56.2,54.5,29.78,SSE,153,10.0,10.0,94,0.00,,,0.00,Wunderground v.1.15,2013-02-09 21:00:00,
2013-02-09 15:10:00,56.6,54.9,29.78,South,175,11.0,11.0,94,0.00,,,0.00,Wunderground v.1.15,2013-02-09 21:10:00,
2013-02-09 15:20:00,56.9,54.9,29.77,SE,145,12.0,12.0,93,0.00,,,0.00,Wunderground v.1.15,2013-02-09 21:20:00,
2013-02-09 15:30:00,56.9,54.9,29.76,SSE,151,12.0,12.0,93,0.00,,,0.00,Wunderground v.1.15,2013-02-09 21:30:00,
2013-02-09 15:40:00,56.9,55.2,29.76,SE,138,12.0,12.0,94,0.00,,,0.00,Wunderground v.1.15,2013-02-09 21:40:00,
2013-02-09 15:50:00,56.8,55.1,29.76,SE,141,10.0,10.0,94,0.00,,,0.00,Wunderground v.1.15,2013-02-09 21:50:00,
2013-02-09 16:00:00,56.7,55.0,29.76,SSE,147,10.0,10.0,94,0.00,,,0.00,Wunderground v.1.15,2013-02-09 22:00:00,
2013-02-09 16:10:00,56.7,55.3,29.76,SSE,155,9.0,9.0,95,0.00,,,0.00,Wunderground v.1.15,2013-02-09 22:10:00,
2013-02-09 16:20:00,56.6,55.2,29.75,SE,144,10.0,10.0,95,0.00,,,0.00,Wunderground v.1.15,2013-02-09 22:20:00,
2013-02-09 16:30:00,56.6,55.2,29.75,SE,130,10.0,10.0,95,0.00,,,0.00,Wunderground v.1.15,2013-02-09 22:30:00,
2013-02-09 16:40:00,56.6,55.2,29.75,SE,140,10.0,10.0,95,0.00,,,0.00,Wunderground v.1.15,2013-02-09 22:40:00,
2013-02-09 16:50:00,56.7,55.3,29.74,SE,132,9.0,15.0,95,0.00,,,0.00,Wunderground v.1.15,2013-02-09 22:50:00,
2013-02-09 17:00:00,56.8,55.7,29.74,ESE,121,10.0,12.0,96,0.00,,,0.00,Wunderground v.1.15,2013-02-09 23:00:00,
2013-02-09 17:10:00,57.1,56.0,29.74,SE,134,11.0,13.0,96,0.00,,,0.00,Wunderground v.1.15,2013-02-09 23:10:00,
2013-02-09 17:20:00,57.2,56.1,29.73,SSE,150,12.0,12.0,96,0.00,,,0.00,Wunderground v.1.15,2013-02-09 23:20:00,
2013-02-09 17:30:00,57.4,56.3,29.73,SE,138,11.0,13.0,96,0.00,,,0.00,Wunderground v.1.15,2013-02-09 23:30:00,
2013-02-09 17:40:00,57.6,56.5,29.73,SE,138,10.0,10.0,96,0.00,,,0.00,Wunderground v.1.15,2013-02-09 23:40:00,
2013-02-09 17:50:00,57.7,56.6,29.73,SE,129,9.0,13.0,96,0.00,,,0.00,Wunderground v.1.15,2013-02-09 23:50:00,
2013-02-09 18:00:00,58.0,56.9,29.74,SE,137,9.0,11.0,96,0.00,,,0.00,Wunderground v.1.15,2013-02-10 00:00:00,
2013-02-09 18:10:00,58.1,56.7,29.74,SE,130,9.0,11.0,95,0.00,,,0.00,Wunderground v.1.15,2013-02-10 00:10:00,
2013-02-09 18:20:00,58.3,56.9,29.73,ESE,123,8.0,8.0,95,0.00,,,0.00,Wunderground v.1.15,2013-02-10 00:20:00,
2013-02-09 18:30:00,58.4,57.0,29.73,SE,134,9.0,12.0,95,0.00,,,0.00,Wunderground v.1.15,2013-02-10 00:30:00,
2013-02-09 18:40:00,58.6,57.2,29.74,SE,133,9.0,15.0,95,0.00,,,0.00,Wunderground v.1.15,2013-02-10 00:40:00,
2013-02-09 18:50:00,58.7,57.3,29.73,SE,126,9.0,9.0,95,0.00,,,0.00,Wunderground v.1.15,2013-02-10 00:50:00,
2013-02-09 19:00:00,58.9,57.5,29.74,ESE,116,8.0,8.0,95,0.00,,,0.00,Wunderground v.1.15,2013-02-10 01:00:00,
2013-02-09 19:10:00,59.0,57.6,29.73,ESE,119,7.0,7.0,95,0.00,,,0.00,Wunderground v.1.15,2013-02-10 01:10:00,
2013-02-09 19:20:00,59.2,57.8,29.73,ESE,110,7.0,7.0,95,0.00,,,0.00,Wunderground v.1.15,2013-02-10 01:20:00,
2013-02-09 19:30:00,59.3,57.9,29.73,ESE,117,7.0,7.0,95,0.00,,,0.00,Wunderground v.1.15,2013-02-10 01:30:00,
2013-02-09 19:40:00,59.4,58.0,29.73,ESE,110,7.0,8.0,95,0.00,,,0.00,Wunderground v.1.15,2013-02-10 01:40:00,
2013-02-09 19:50:00,59.6,58.2,29.72,ESE,105,8.0,9.0,95,0.00,,,0.00,Wunderground v.1.15,2013-02-10 01:50:00,
2013-02-09 20:00:00,59.7,58.3,29.73,ESE,109,8.0,8.0,95,0.00,,,0.00,Wunderground v.1.15,2013-02-10 02:00:00,
2013-02-09 20:10:00,59.7,58.0,29.73,ESE,107,6.0,8.0,94,0.00,,,0.00,Wunderground v.1.15,2013-02-10 02:10:00,
2013-02-09 20:20:00,60.2,58.8,29.73,SE,134,4.0,4.0,95,0.00,,,0.00,Wunderground v.1.15,2013-02-10 02:20:00,
2013-02-09 20:30:00,60.9,59.2,29.72,SE,138,5.0,6.0,94,0.00,,,0.00,Wunderground v.1.15,2013-02-10 02:30:00,
2013-02-09 20:40:00,61.2,59.5,29.72,SE,134,5.0,6.0,94,0.00,,,0.00,Wunderground v.1.15,2013-02-10 02:40:00,
2013-02-09 20:50:00,61.4,59.4,29.71,SE,144,7.0,7.0,93,0.00,,,0.00,Wunderground v.1.15,2013-02-10 02:50:00,
2013-02-09 21:00:00,61.7,59.7,29.71,SSE,159,8.0,9.0,93,0.00,,,0.00,Wunderground v.1.15,2013-02-10 03:00:00,
2013-02-09 21:10:00,62.3,60.2,29.71,SSE,163,9.0,9.0,93,0.00,,,0.00,Wunderground v.1.15,2013-02-10 03:10:00,
2013-02-09 21:20:00,62.9,60.5,29.71,SSE,163,10.0,10.0,92,0.00,,,0.00,Wunderground v.1.15,2013-02-10 03:20:00,
2013-02-09 21:30:00,63.2,60.5,29.71,SSE,167,9.0,10.0,91,0.00,,,0.00,Wunderground v.1.15,2013-02-10 03:30:00,
2013-02-09 21:40:00,63.3,60.6,29.70,SSE,166,9.0,10.0,91,0.00,,,0.00,Wunderground v.1.15,2013-02-10 03:40:00,
2013-02-09 21:50:00,63.4,60.7,29.71,SSE,158,7.0,9.0,91,0.00,,,0.00,Wunderground v.1.15,2013-02-10 03:50:00,
2013-02-09 22:00:00,63.6,60.6,29.71,South,169,7.0,7.0,90,0.00,,,0.00,Wunderground v.1.15,2013-02-10 04:00:00,
2013-02-09 22:10:00,63.7,60.7,29.71,SSE,163,7.0,7.0,90,0.00,,,0.00,Wunderground v.1.15,2013-02-10 04:10:00,
2013-02-09 22:20:00,63.8,60.8,29.71,South,171,6.0,6.0,90,0.00,,,0.00,Wunderground v.1.15,2013-02-10 04:20:00,
2013-02-09 22:30:00,63.7,60.7,29.70,South,178,6.0,9.0,90,0.00,,,0.00,Wunderground v.1.15,2013-02-10 04:30:00,
2013-02-09 22:40:00,63.9,60.9,29.69,SE,145,9.0,14.0,90,0.00,,,0.00,Wunderground v.1.15,2013-02-10 04:40:00,
2013-02-09 22:50:00,64.0,60.7,29.69,SSE,163,10.0,11.0,89,0.00,,,0.00,Wunderground v.1.15,2013-02-10 04:50:00,
2013-02-09 23:00:00,64.2,60.9,29.67,SSE,150,12.0,14.0,89,0.00,,,0.00,Wunderground v.1.15,2013-02-10 05:00:00,
2013-02-09 23:10:00,64.3,61.0,29.68,SSE,154,11.0,15.0,89,0.00,,,0.00,Wunderground v.1.15,2013-02-10 05:10:00,
2013-02-09 23:20:00,64.3,61.0,29.68,SSE,155,11.0,12.0,89,0.00,,,0.00,Wunderground v.1.15,2013-02-10 05:20:00,
2013-02-09 23:30:00,64.4,61.1,29.67,SSE,154,13.0,16.0,89,0.00,,,0.00,Wunderground v.1.15,2013-02-10 05:30:00,
2013-02-09 23:40:00,64.5,61.2,29.66,SSE,162,12.0,13.0,89,0.00,,,0.00,Wunderground v.1.15,2013-02-10 05:40:00,
2013-02-09 23:50:00,64.8,61.5,29.66,SSE,154,13.0,13.0,89,0.00,,,0.00,Wunderground v.1.15,2013-02-10 05:50:00,